{"data":{"norad_id":52255,"epoch":"2026-05-24T23:29:23.102304Z","epoch_age_seconds":83640,"freshness":"FRESH","line1":"1 52255U 22038A   26144.97873961 -.00000357  00000+0  00000+0 0  9995","line2":"2 52255   0.0079 307.3650 0000696  70.8100 341.8242  1.00270187 15183","mean_motion":1.00270187,"eccentricity":6.96e-5,"inclination_deg":0.0079,"raan_deg":307.365,"arg_perigee_deg":70.81,"mean_anomaly_deg":341.8242,"bstar":0,"rev_number":1518,"period_min":1436.1197910202,"perigee_km":35784.108248025,"apogee_km":35789.977641073,"semimajor_km":42165.179944549,"source":"CELESTRAK","updated_at":"2026-05-25T13:38:14.107374Z"}}